RH
89 96 101 103 103 102 99 98 99 99 99 100 101 102 104 105 106 105 104 103 102 102 100 98 96 95 94 94 94 94 93 92 91 91 92 92 91 87 82 76 71 66 67 74 80 81 82 79 75 75 80 88 94 95 93 88 81 77 77 76 73 72 73
52 62 73 84 93 99 102 103 102 101 100 100 100 98 99 101 104 105 106 106 105 104 104 103 103 103 101 98 96 94 93 91 90 90 92 94 95 94 92 87 81 75 72 75 79 81 80 78 76 73 73 81 92 100 100 96 89 82 78 76 75 74 73
30 33 38 46 56 66 76 85 91 95 99 101 100 98 96 96 97 98 101 103 103 104 106 106 106 108 108 107 106 104 103 101 97 94 93 94 94 94 94 92 88 82 78 78 81 82 80 78 77 75 72 72 82 97 105 106 104 98 91 84 81 81 81
30 29 29 29 32 36 41 48 56 64 71 78 82 85 88 89 91 92 95 98 98 100 102 102 104 107 107 108 109 108 107 107 106 104 103 100 97 95 95 94 92 89 86 85 86 87 85 82 79 78 77 73 74 85 97 106 111 111 107 100 92 89 90
32 32 31 31 30 30 30 31 33 36 41 45 50 54 59 63 67 72 77 83 87 91 93 94 97 101 103 104 107 108 109 108 108 109 110 107 102 98 96 93 90 88 87 87 89 92 93 90 86 82 80 78 75 76 82 92 105 114 115 110 102 98 97
32 32 33 33 33 32 32 32 32 31 32 33 34 36 38 39 41 43 46 50 55 60 65 68 72 77 81 85 89 94 100 104 106 109 112 111 108 105 103 100 95 89 84 81 81 84 89 91 91 88 85 82 80 77 76 79 89 103 111 110 107 107 105
29 30 31 32 33 33 33 33 33 33 33 33 33 33 33 34 35 35 35 36 36 37 39 41 43 46 49 52 55 58 63 70 76 81 86 91 95 98 99 101 100 96 94 90 84 82 84 86 87 86 85 85 84 82 81 80 82 90 99 103 103 105 105
22 25 27 29 31 33 34 34 34 34 34 33 33 33 33 34 34 34 35 35 36 36 36 36 36 37 37 38 38 39 39 41 44 46 49 52 57 62 66 69 71 74 78 79 79 78 80 83 83 79 77 77 78 79 80 81 83 86 91 96 97 96 95
16 17 19 21 24 27 29 32 34 35 35 35 35 34 34 34 34 34 34 35 35 36 36 36 36 37 37 36 36 36 36 37 37 37 37 38 39 40 41 42 43 44 47 48 50 52 55 60 62 61 60 60 61 62 63 64 66 70 75 83 90 93 92
13 14 14 15 16 18 20 23 26 29 32 34 35 36 36 36 35 35 35 35 35 36 35 35 35 35 35 35 36 37 37 37 37 37 37 37 37 38 37 38 37 37 38 38 38 38 39 40 41 42 44 44 43 42 42 41 42 44 47 53 61 70 76
14 15 15 15 15 15 15 16 17 19 21 23 26 29 31 34 36 38 38 38 38 37 36 35 35 34 34 34 35 35 36 36 37 37 37 36 36 37 37 37 37 37 37 37 37 38 38 39 40 40 42 43 41 38 36 33 31 30 30 32 37 43 48
14 15 15 16 16 17 17 17 17 17 18 18 18 19 21 24 28 31 34 36 36 36 36 37 37 37 37 36 36 36 36 36 36 35 36 36 36 36 37 37 37 36 36 36 36 36 36 37 39 41 44 45 45 43 41 37 32 29 28 29 31 33 35
10 11 12 12 13 14 15 16 16 17 18 19 19 19 19 21 22 24 25 26 27 29 31 34 35 36 37 36 36 37 36 36 37 37 37 37 37 38 39 40 40 40 39 39 38 37 37 37 38 39 42 43 44 43 40 37 34 31 30 31 32 33 32
8 8 9 9 10 10 11 11 12 13 14 15 17 18 19 22 23 24 23 23 23 24 26 27 29 30 31 32 33 33 34 34 34 34 34 35 35 37 37 38 39 39 38 38 38 37 38 39 41 42 42 43 45 43 40 36 33 31 29 28 29 29 29
7 8 8 8 8 8 8 9 9 9 10 10 11 12 14 16 18 20 21 22 23 25 26 27 27 27 28 29 30 30 30 30 30 30 31 31 31 32 33 33 33 33 32 32 31 31 31 33 36 38 38 39 41 40 38 35 33 30 28 26 24 24 25
7 7 8 8 8 8 8 8 9 9 9 9 9 10 10 10 11 13 14 15 17 19 22 23 24 24 25 26 27 27 27 27 28 28 29 30 31 31 32 32 32 32 31 30 28 27 26 25 27 28 30 30 31 32 31 29 29 27 26 25 24 23 24
7 7 7 7 8 8 8 8 9 9 9 9 10 10 10 10 10 11 11 11 12 13 14 14 15 16 17 18 19 20 20 20 21 22 24 25 27 27 28 28 27 27 27 26 25 24 23 23 22 23 24 24 25 25 25 24 23 23 23 24 24 23 24
7 7 7 7 7 8 8 8 9 9 9 10 10 11 11 11 11 12 12 12 12 11 11 11 11 11 11 12 13 13 13 14 14 15 16 17 18 18 18 18 18 19 20 20 19 19 19 19 19 19 20 20 21 22 22 21 20 19 20 21 20 20 21
7 7 7 7 7 7 8 8 8 8 9 9 10 10 11 12 13 13 13 13 12 12 11 11 11 10 11 11 11 11 11 12 12 12 13 14 14 13 13 13 14 15 15 15 14 15 15 15 15 16 17 17 17 18 19 18 17 17 17 17 16 16 17
6 6 6 7 7 7 7 8 8 8 8 8 9 10 10 11 12 13 13 13 12 12 12 12 11 11 11 11 11 11 11 11 11 11 12 12 12 12 12 13 14 14 14 13 13 13 13 13 13 13 13 13 14 14 14 14 14 13 14 15 15 15 15
6 6 6 6 7 7 7 8 8 8 8 8 9 9 9 11 12 13 12 12 12 12 12 11 11 11 11 11 10 10 10 10 10 10 11 11 11 11 12 12 13 12 12 12 12 12 12 12 11 11 11 11 12 12 12 13 12 12 12 13 14 14 15
5 5 6 6 6 7 7 8 8 8 9 9 9 9 9 10 12 12 12 12 13 13 12 11 11 11 10 10 9 9 9 9 10 10 10 10 10 10 11 11 12 12 12 13 13 13 13 13 13 13 13 13 13 13 13 14 14 13 13 14 15 15 15
5 5 6 6 6 7 7 7 8 8 9 9 9 9 9 10 11 11 11 12 14 13 13 12 12 11 11 10 10 10 10 10 11 11 11 11 11 12 12 12 12 12 13 13 13 13 13 13 14 14 13 12 12 12 12 12 12 12 11 11 11 12 12
6 6 5 6 6 6 7 7 8 9 9 9 9 9 9 10 11 10 10 12 13 13 13 13 12 12 12 11 11 11 11 11 11 11 11 11 11 11 11 11 11 11 11 11 10 10 10 10 10 10 10 10 9 9 9 9 9 8 8 8 8 9 9
6 6 6 6 6 6 6 7 7 8 9 9 9 9 9 10 10 10 9 10 11 11 11 11 11 11 11 11 11 10 10 10 10 9 9 9 9 9 9 9 9 9 9 8 8 8 8 8 8 7 7 7 7 8 8 8 8 8 8 8 8 8 8
6 6 6 6 6 6 6 6 7 7 8 8 8 8 8 9 9 9 9 10 10 10 10 10 11 11 11 11 10 10 10 9 9 9 8 8 8 8 8 8 7 7 7 7 7 7 7 7 7 7 7 7 7 7 7 7 7 7 7 8 8 7 8
6 6 6 6 6 6 6 6 7 7 7 8 8 7 8 8 8 8 8 9 9 9 9 9 9 9 9 9 9 9 9 8 8 8 8 7 7 7 7 7 7 7 7 7 7 7 7 7 7 7 8 8 7 7 8 8 7 7 7 7 7 7 7
6 6 6 6 6 6 6 7 7 7 7 7 7 7 8 8 7 7 7 8 7 8 8 8 8 8 8 8 8 8 8 8 8 7 7 7 7 7 7 7 7 7 7 7 7 7 7 8 8 8 8 8 8 8 8 8 8 7 7 7 7 7 7
6 6 6 6 6 6 7 7 7 7 8 8 8 8 8 8 8 7 7 7 7 7 7 7 7 8 8 8 8 8 8 8 8 7 7 7 7 7 7 7 7 7 7 7 7 7 8 8 8 8 8 8 8 8 8 8 8 7 7 7 7 6 6
7 7 7 7 7 7 7 7 8 8 8 8 8 8 8 8 8 8 8 8 8 8 9 9 9 9 9 9 9 8 8 8 8 8 8 7 7 8 7 7 7 7 7 7 7 7 7 7 7 7 8 8 8 8 8 7 7 7 7 7 7 6 6
7 7 7 7 7 7 7 7 8 8 8 8 8 9 9 9 9 9 9 9 9 9 9 9 9 9 9 9 9 9 9 9 9 9 9 9 9 8 8 8 8 7 7 7 6 6 6 6 6 7 7 7 7 7 7 7 7 7 6 6 6 6 6
7 7 7 7 7 7 7 8 8 8 8 8 8 9 9 9 9 9 9 9 9 9 9 9 9 9 9 9 9 9 9 9 9 9 9 9 9 9 9 9 9 8 8 8 7 7 7 6 6 6 6 6 6 6 6 7 7 7 7 6 6 6 6
7 7 7 7 7 7 8 8 8 8 8 9 9 9 9 9 9 9 9 9 9 9 9 9 9 9 9 9 9 9 9 9 9 9 9 8 9 8 8 8 8 8 8 8 8 8 8 7 7 7 6 6 6 6 6 6 6 6 6 6 6 6 6
8 8 8 8 8 8 8 8 9 9 9 9 9 8 8 8 9 9 9 9 9 9 9 9 9 9 9 9 8 8 8 8 8 8 8 7 7 7 7 7 7 8 8 8 8 8 8 8 8 7 7 7 7 6 6 6 7 6 6 6 7 7 7
8 9 9 9 9 9 9 9 9 9 9 9 9 9 9 9 9 9 9 9 9 9 9 9 9 9 8 8 8 8 7 7 7 7 7 7 7 7 7 7 7 7 7 7 7 7 7 8 8 7 8 7 7 7 7 6 6 6 6 6 7 7 7
9 9 9 10 10 10 10 10 9 9 10 10 10 10 10 10 10 9 9 9 9 9 9 9 9 8 8 8 8 8 8 8 8 7 7 7 7 7 7 7 7 7 6 6 6 6 7 7 7 7 7 7 7 7 7 6 6 6 6 6 6 6 7
Wind_Speed
120 120 121 121 122 123 124 125 126 127 128 128 129 129 129 129 129 129 129 129 129 128 128 127 127 127 127 127 127 126 126 126 126 126 126 126 126 126 127 126 126 124 122 122 123 123 123 124 125 122 120 120 122 124 125 127 126 126 125 125 125 124 123
119 120 122 123 124 125 125 126 127 127 128 129 130 130 130 130 131 131 132 132 132 132 132 132 131 131 131 131 131 130 130 130 130 130 129 130 130 130 130 130 130 128 127 126 126 127 126 127 128 126 124 123 123 124 126 128 129 128 127 127 127 126 126
115 117 119 121 123 124 125 127 128 129 130 130 131 131 131 131 131 132 132 133 133 134 135 135 135 135 135 136 135 135 134 134 134 134 133 133 133 133 133 134 134 133 131 130 130 130 130 130 131 130 129 127 125 125 127 128 130 130 130 129 128 128 127
113 114 115 117 119 121 122 124 126 128 129 131 132 132 133 133 133 133 133 133 134 134 135 135 136 136 137 138 138 138 138 138 138 138 138 137 137 137 136 137 137 137 136 135 134 134 134 134 134 134 133 132 130 128 128 129 130 132 132 132 132 130 129
114 114 114 115 116 117 119 120 122 124 126 128 130 131 132 133 134 134 134 134 134 135 135 135 135 136 137 138 138 138 139 139 140 141 141 141 140 140 140 140 140 140 139 139 138 138 138 138 138 138 137 137 135 133 132 131 132 134 135 135 135 134 133
115 115 115 115 115 116 117 118 119 121 122 124 125 127 128 130 131 132 133 133 134 134 135 135 135 136 137 137 138 138 139 140 141 141 142 142 142 142 142 142 142 142 142 141 140 140 140 141 141 141 141 141 140 138 137 135 135 136 138 139 139 138 138
117 117 116 116 116 116 117 117 118 119 120 121 123 124 125 126 127 128 129 130 131 132 133 133 134 134 135 136 136 137 137 138 140 141 141 142 142 143 143 144 144 144 144 143 143 141 141 141 142 142 141 142 142 142 140 139 138 139 140 142 143 142 142
116 116 117 117 117 118 118 118 118 119 119 120 121 122 123 124 125 126 126 127 128 129 130 131 131 132 133 134 134 135 135 135 137 138 139 139 140 141 142 143 143 143 144 144 144 143 143 143 143 142 141 141 142 143 142 141 141 141 142 144 146 146 146
114 115 115 116 117 117 118 118 119 119 120 120 120 121 121 122 123 124 125 125 126 127 128 129 130 131 132 132 133 133 133 134 134 135 136 136 137 138 140 141 141 142 142 143 143 143 143 143 143 142 141 141 142 142 142 142 142 141 141 142 145 147 148
112 113 114 115 115 116 116 117 118 119 120 120 121 121 121 121 121 122 123 124 125 126 127 128 129 130 130 131 132 132 133 133 134 135 135 135 136 137 138 139 139 140 141 141 142 142 142 142 142 142 142 142 142 143 143 142 141 140 139 140 142 143 145
107 109 110 112 113 114 115 116 116 117 118 119 120 120 120 121 121 122 123 123 124 125 126 127 127 128 128 129 130 131 131 132 133 134 134 135 135 136 137 137 138 139 140 140 141 141 141 142 142 142 143 144 144 144 144 143 142 140 138 137 138 140 141
104 106 107 109 110 111 113 114 114 115 116 117 117 118 118 119 120 121 123 124 125 125 125 126 126 126 127 128 129 129 130 131 131 132 133 133 133 134 134 135 136 137 137 138 139 140 140 141 141 142 143 144 145 146 147 146 144 141 138 137 137 138 139
102 103 105 106 108 109 110 111 112 113 114 115 116 116 116 116 118 119 121 122 123 123 124 125 125 126 127 127 128 129 129 130 130 131 131 132 132 132 133 134 134 135 136 136 137 137 137 138 139 140 141 143 145 146 147 147 145 143 141 140 139 140 139
98 100 102 103 105 106 107 108 109 110 111 112 113 114 114 115 116 117 118 119 120 120 121 122 123 125 126 127 127 128 129 129 129 130 130 131 131 132 132 133 134 135 135 136 136 136 136 136 137 138 139 140 142 145 146 146 145 145 143 142 141 140 140
93 95 96 98 100 102 103 104 105 107 108 109 110 110 111 112 113 115 116 117 118 118 119 120 121 123 123 124 125 126 127 127 128 128 129 129 130 131 132 133 133 134 135 135 136 136 136 136 137 138 139 140 141 143 143 143 144 143 142 142 140 139 140
87 89 91 92 94 96 97 98 100 102 103 104 105 106 107 108 109 111 113 114 114 116 118 119 120 121 122 122 123 124 125 126 126 126 127 128 129 130 131 132 133 134 135 135 136 136 136 135 135 136 138 139 140 141 141 141 141 141 140 140 139 138 138
83 84 86 87 89 90 91 92 94 96 97 99 100 101 102 103 104 106 108 109 111 112 114 116 117 118 118 119 120 122 123 123 124 124 125 126 127 128 130 131 132 133 134 135 135 136 136 135 135 135 136 137 137 138 139 139 139 138 137 138 138 136 136
80 81 83 84 85 86 87 88 89 90 92 93 94 95 97 98 100 101 103 105 107 109 110 110 111 112 113 114 116 117 118 118 119 120 121 122 123 125 127 128 128 130 131 132 133 133 134 134 134 134 134 135 135 135 136 137 137 135 135 136 135 134 134
77 78 79 81 81 82 83 84 85 86 87 88 89 90 92 93 95 97 99 100 102 103 104 104 105 106 107 109 110 111 112 113 114 114 115 117 118 120 121 121 122 124 126 127 127 128 129 129 130 130 131 132 132 133 134 135 134 133 133 133 132 131 132
74 75 76 77 78 78 79 81 82 83 84 85 85 86 88 89 91 93 94 96 96 97 98 98 99 101 102 104 105 106 107 108 109 109 109 111 113 114 114 114 116 118 119 120 121 121 122 123 124 124 125 126 127 128 129 130 130 129 128 129 130 130 130
71 72 73 74 75 75 76 77 79 79 80 81 82 83 84 85 86 89 90 90 90 92 92 93 94 96 97 99 100 100 101 103 104 104 105 106 107 108 108 109 110 112 112 113 114 115 116 117 118 118 119 120 120 121 122 123 124 123 122 123 124 126 127
69 69 70 71 71 72 73 75 76 76 77 78 79 80 80 81 83 85 85 85 85 87 88 89 90 91 92 93 94 95 95 96 98 99 99 100 101 101 102 103 104 105 106 107 108 109 110 111 112 113 114 115 115 115 116 117 118 118 118 117 119 120 121
66 67 67 67 68 69 71 72 72 73 75 76 77 77 77 79 81 82 81 81 82 83 84 85 86 87 88 88 89 89 90 91 92 93 93 94 95 96 97 98 98 99 100 101 102 104 104 105 107 108 110 111 111 111 112 113 114 114 114 114 114 115 116
64 65 65 65 66 67 68 69 69 70 72 73 74 75 75 76 78 79 79 79 80 80 81 82 83 84 84 85 85 85 86 86 87 88 89 89 90 91 92 93 94 95 96 97 98 99 100 101 102 104 105 107 107 108 108 109 110 110 110 110 110 111 111
63 63 64 64 64 65 65 66 67 68 69 71 72 73 73 74 76 76 76 77 77 78 78 79 80 81 82 82 82 83 83 84 85 85 86 86 87 88 89 89 90 91 92 93 94 95 96 98 99 100 100 101 102 103 104 105 105 105 105 105 106 106 107
62 62 62 63 63 63 64 64 65 66 67 69 71 71 71 72 74 74 74 74 75 76 76 77 78 79 80 81 81 82 83 83 84 84 84 85 85 86 86 87 88 88 89 90 91 92 93 94 95 96 96 97 98 98 99 100 101 101 100 101 101 102 102
60 60 61 61 62 62 62 63 64 65 65 67 69 69 70 71 72 72 71 72 73 73 74 75 76 77 78 79 79 80 81 82 82 82 83 83 83 84 84 85 86 86 86 87 87 88 90 90 91 92 93 94 94 94 95 96 97 96 96 97 98 99 99
58 58 59 60 61 61 61 61 62 63 64 65 66 67 68 70 71 70 70 71 71 71 72 73 73 74 75 76 76 77 78 78 79 80 80 81 81 81 82 82 83 83 83 84 84 85 86 86 88 89 90 91 92 92 92 93 94 94 94 95 95 95 95
57 56 57 58 58 59 59 59 60 61 62 62 64 65 66 68 69 69 69 69 69 70 70 70 71 71 72 73 74 74 75 76 76 77 77 78 78 78 78 79 79 79 80 80 80 81 82 82 83 85 86 87 88 89 90 91 91 91 92 92 93 92 92
55 54 55 55 56 56 57 57 58 59 60 60 61 63 64 65 66 67 67 67 68 68 68 68 69 70 70 71 71 72 73 73 74 75 75 75 75 75 76 76 76 76 76 76 77 77 78 78 79 80 82 83 84 85 86 87 88 89 88 89 90 90 90
52 53 53 53 54 54 55 56 56 57 57 58 58 59 60 61 62 63 64 65 65 66 66 66 67 67 68 68 69 69 70 71 71 72 72 73 73 73 74 74 74 75 75 75 75 75 75 75 76 77 78 79 80 81 82 84 85 86 86 86 87 87 87
50 51 52 52 52 52 53 53 54 54 55 55 55 56 57 58 59 60 61 62 62 63 63 63 64 64 65 65 66 66 67 68 68 69 70 70 71 71 72 73 73 74 74 74 75 75 75 75 76 76 76 77 78 78 79 81 82 84 84 84 85 85 85
49 49 50 50 50 50 50 50 51 52 53 54 54 54 55 55 56 57 58 59 59 60 60 60 61 61 62 62 63 63 64 65 65 66 67 68 68 69 70 70 71 72 72 73 74 75 75 76 76 77 77 77 77 77 78 79 80 81 81 82 82 83 84
46 47 47 48 48 49 49 49 50 51 52 52 53 53 53 53 54 55 55 56 57 57 58 58 58 59 59 60 60 61 62 62 63 64 65 65 66 66 67 68 68 69 69 70 71 72 73 74 75 76 76 76 76 76 76 77 78 78 79 79 79 80 82
44 45 46 46 46 47 47 48 49 49 50 50 51 51 51 52 52 53 54 54 55 55 56 56 57 57 58 58 58 59 59 60 61 61 62 63 64 64 64 65 65 65 66 66 67 68 69 70 71 72 73 74 74 75 75 75 75 75 76 76 76 76 78
43 44 44 45 45 45 46 46 47 48 49 49 49 50 50 50 51 51 52 53 54 54 55 55 55 56 56 56 57 57 57 58 58 59 60 60 61 61 62 62 62 62 62 63 63 64 65 66 67 68 69 70 71 72 72 72 72 73 73 72 72 72 73
Wind_Direction
256 256 256 256 256 256 256 256 257 257 257 257 257 257 257 256 257 257 257 258 258 258 259 259 259 258 258 257 257 257 256 256 256 256 257 257 257 257 258 258 257 257 256 255 255 255 255 255 255 255 254 255 257 258 259 260 260 259 259 260 260 260 260
256 255 255 255 255 255 256 256 256 257 257 257 257 257 257 257 257 257 257 257 257 257 258 258 258 259 259 259 259 259 258 258 257 257 257 257 257 257 258 258 258 258 257 256 256 256 256 256 256 256 255 254 255 257 258 259 260 260 260 260 260 260 260
256 255 255 255 255 255 255 255 256 256 256 257 257 257 257 257 257 257 257 257 257 257 257 257 258 258 258 259 259 259 259 260 259 259 258 257 257 257 257 258 258 258 258 257 257 257 257 257 257 257 257 255 255 255 256 258 259 260 260 260 260 260 260
257 256 256 255 255 255 254 254 255 255 255 256 256 257 257 258 258 257 257 257 257 257 257 257 257 258 258 258 258 259 259 259 260 260 260 259 259 259 258 258 258 258 258 258 257 257 257 257 257 257 257 257 256 255 255 256 258 259 260 260 260 260 259
259 258 257 256 256 255 255 255 255 255 255 255 255 256 256 257 257 258 258 258 258 257 257 257 257 257 258 258 258 258 259 259 259 259 260 260 260 260 260 260 260 259 259 258 258 257 257 257 258 258 258 258 257 257 256 256 256 258 259 259 260 260 260
260 259 258 258 257 256 256 256 255 255 255 255 255 256 256 256 256 257 257 257 258 258 258 258 258 257 258 258 258 258 258 258 259 259 259 260 260 260 261 261 261 261 261 260 259 259 258 258 258 258 258 258 258 257 257 256 256 257 258 259 259 260 260
260 259 259 259 258 258 257 256 256 256 256 256 256 256 256 256 256 257 257 257 257 258 258 258 258 258 258 258 258 258 258 258 258 258 259 259 259 260 260 260 261 261 261 261 261 261 260 260 259 259 259 259 259 258 258 257 257 256 257 258 258 259 259
259 259 259 259 259 258 258 258 257 257 256 256 256 256 256 256 257 257 257 257 257 258 258 258 258 258 258 258 258 258 258 258 258 258 258 259 259 259 260 260 260 260 261 261 261 261 261 261 261 261 261 260 260 260 259 258 257 256 256 257 258 258 258
261 261 260 260 259 259 259 258 258 258 258 257 257 257 256 256 257 257 257 257 257 258 258 258 258 258 258 258 258 258 259 258 258 258 259 259 259 259 259 260 260 260 260 261 261 261 262 262 262 262 262 262 261 261 261 260 259 258 257 257 258 258 259
261 261 261 261 261 260 260 259 259 258 258 258 258 258 258 257 257 257 257 258 258 258 258 258 258 258 258 258 259 259 259 259 259 259 259 259 259 259 259 260 260 260 260 261 261 261 261 262 262 262 262 262 262 262 261 261 260 259 258 258 258 259 259
261 261 261 261 261 261 261 261 260 260 259 259 259 258 258 258 258 258 258 258 258 258 258 258 258 258 259 259 259 259 259 259 259 259 259 259 259 259 259 259 260 260 260 260 261 261 261 261 262 262 262 262 262 263 263 262 261 260 259 259 259 259 259
261 261 261 261 261 261 261 261 261 261 260 260 260 259 259 259 259 259 258 258 258 258 258 259 259 259 259 259 259 260 260 260 260 260 260 260 260 260 260 260 260 260 260 260 260 261 261 261 261 261 262 262 262 263 263 263 263 263 262 261 261 260 260
262 261 261 261 261 261 261 261 261 261 260 260 260 260 260 260 259 259 259 259 259 259 259 259 259 259 259 259 259 260 260 260 260 261 261 261 261 261 262 262 262 262 261 261 261 261 261 261 261 261 261 261 262 262 263 263 264 264 264 263 262 262 261
263 262 262 262 262 261 261 261 261 261 261 261 261 261 260 260 260 260 260 260 259 259 259 259 259 259 259 259 259 260 260 260 260 260 261 261 262 262 262 262 262 263 263 262 262 262 262 262 262 262 262 262 262 262 263 263 264 264 264 264 263 263 263
263 262 262 262 262 262 262 262 262 262 262 262 261 261 261 260 260 260 260 260 260 260 260 260 259 259 259 259 259 260 260 260 260 260 261 261 261 262 262 262 263 263 263 263 263 263 263 262 262 262 263 262 262 262 262 263 263 263 264 264 264 264 264
262 262 262 261 261 262 262 262 262 262 262 262 262 262 262 262 261 261 261 261 260 260 260 260 260 259 259 259 260 260 260 260 260 260 260 261 261 261 261 262 262 262 262 263 263 263 263 263 262 262 262 262 262 263 263 263 263 263 263 264 264 264 264
263 262 262 261 261 261 261 262 262 262 262 263 263 263 263 263 262 262 262 262 261 261 260 260 259 259 260 260 260 260 260 260 260 260 260 260 260 260 260 260 261 261 261 262 262 263 263 263 263 263 263 263 263 263 263 263 263 263 264 264 264 263 263
263 263 263 262 262 262 261 261 262 262 262 262 263 263 263 263 263 262 262 262 261 261 261 260 260 260 260 260 260 260 260 260 260 260 260 260 260 259 259 260 260 260 261 261 262 262 262 263 263 263 263 263 263 263 263 264 264 264 264 264 264 264 263
264 264 263 263 263 262 262 262 262 262 262 262 262 262 263 263 263 263 263 262 262 262 262 262 262 262 262 261 261 261 261 261 260 260 260 260 260 260 260 260 261 261 261 261 261 262 262 262 263 263 263 263 263 263 263 263 264 264 264 264 264 264 264
265 265 264 264 264 264 263 263 262 262 262 262 262 262 262 263 263 263 263 263 263 263 263 263 263 263 262 262 262 262 262 262 262 262 261 261 261 261 261 261 261 261 261 261 262 262 262 262 262 262 262 262 262 262 263 263 263 263 263 264 264 264 264
266 266 266 266 266 265 265 264 264 263 263 263 262 262 262 263 263 263 263 264 264 264 264 264 263 263 263 262 262 262 262 262 263 263 262 262 262 262 262 262 262 262 262 262 262 262 262 262 262 262 262 262 262 262 262 262 262 263 262 262 263 263 263
267 267 267 267 267 267 266 266 266 265 265 264 264 264 264 264 264 264 264 265 265 265 265 264 264 264 263 263 263 263 263 263 263 263 263 263 263 263 263 262 262 262 262 262 262 262 262 262 262 263 263 262 262 262 262 262 263 263 263 262 262 262 262
269 268 268 267 267 267 267 267 267 267 266 266 266 265 265 265 265 265 266 266 265 265 265 265 265 265 265 265 264 264 264 264 264 264 264 263 263 263 263 263 263 263 263 263 263 263 263 262 263 263 263 263 263 263 263 263 263 263 263 262 262 262 262
270 269 269 268 268 267 267 267 267 267 267 267 267 267 266 266 266 266 267 267 267 267 267 267 267 267 267 267 267 266 266 266 265 265 265 265 265 264 264 264 264 264 264 264 264 264 264 264 263 263 263 263 264 263 263 263 263 263 263 263 262 262 262
270 270 269 269 268 268 268 268 268 268 268 268 268 268 267 267 267 267 268 268 268 269 269 269 269 269 269 270 269 269 269 268 268 268 267 267 267 267 266 266 266 266 265 265 265 265 265 265 264 263 263 263 263 263 263 263 263 263 263 263 262 262 262
271 270 270 270 269 269 269 269 268 268 268 269 269 269 269 269 269 269 270 270 270 270 270 271 271 271 271 271 271 271 271 271 271 270 270 270 269 269 268 268 267 267 266 266 266 265 265 265 265 265 264 264 263 263 263 263 263 263 263 262 262 262 262
272 271 271 271 271 270 270 270 270 270 270 270 270 271 271 271 271 271 271 271 270 270 270 270 270 270 270 270 271 271 271 271 271 271 271 270 270 269 269 268 268 267 266 266 266 265 265 265 265 265 265 265 264 264 264 264 264 263 263 263 262 262 262
273 272 272 272 272 272 271 271 271 271 272 272 272 272 272 272 272 272 272 271 271 271 271 270 271 271 271 271 271 271 271 271 270 270 270 270 269 269 268 268 268 267 267 266 266 265 265 265 265 265 265 265 265 265 265 265 265 264 264 263 262 262 262
274 273 273 273 273 273 273 273 272 272 272 272 272 272 272 273 273 274 274 274 273 273 273 273 272 272 272 272 272 272 272 272 271 271 271 271 270 270 269 268 268 267 267 266 266 265 264 264 263 263 264 264 264 264 264 264 264 264 263 263 264 263 263
275 275 274 273 273 273 273 273 272 272 272 272 272 272 273 273 274 274 275 275 274 274 274 273 273 273 273 272 272 272 272 272 273 273 273 272 272 272 271 270 270 269 268 267 266 265 265 264 264 263 263 263 263 263 263 264 264 263 263 263 263 263 263
276 275 275 274 274 274 274 274 274 273 273 273 273 273 273 273 273 274 274 274 273 274 273 273 273 273 273 273 273 273 273 273 273 273 273 273 273 273 273 272 272 272 271 270 269 268 267 266 265 265 264 263 263 263 263 263 264 264 264 263 263 263 263
276 276 276 276 276 276 276 276 276 275 275 275 274 273 273 273 273 273 273 273 273 273 274 274 274 274 273 273 273 273 273 273 273 272 272 272 273 273 273 273 273 273 273 273 272 272 271 270 269 268 267 266 265 264 263 263 263 263 263 264 264 264 263
278 278 278 278 278 278 278 278 277 277 277 276 276 275 275 274 274 275 275 275 275 275 274 274 274 274 274 273 273 273 273 272 272 272 272 272 271 271 271 271 271 271 271 271 271 271 271 271 270 270 269 268 267 266 265 264 264 263 263 263 263 263 263
280 280 280 280 280 280 280 279 278 278 278 278 278 277 277 277 277 277 277 277 277 277 276 276 276 275 275 274 274 274 273 273 273 272 272 272 271 271 270 270 269 269 269 269 269 269 269 269 269 269 269 269 268 267 266 265 264 264 263 263 262 262 263
280 280 280 280 280 280 280 280 280 280 279 280 280 280 280 280 279 279 279 279 278 278 278 278 277 277 277 276 276 275 275 275 274 274 274 273 273 272 272 271 271 270 269 269 268 268 268 268 268 268 269 269 269 268 268 267 266 265 264 263 262 262 262
281 282 283 282 282 281 281 281 281 282 282 282 282 282 282 281 281 281 280 280 280 280 279 279 279 279 279 278 278 278 277 277 277 276 276 276 276 275 275 274 273 272 272 271 270 269 269 268 268 268 268 268 269 269 268 268 267 267 265 264 263 262 261